#timestamp,LO_Frequency,Hit,StdDev 
1544461215.6,286047000.4,N
1544461235.4,286047000.1,N
1544461255.2,286047002.1,N
1544461275.1,286047001.6,N
1544461276.0,286047001.6,N
1544461295.8,286047000.4,N
1544461315.6,286046999.1,N
1544461335.5,286046999.1,N
1544461355.3,286046997.9,N
1544461375.2,286046997.9,N
1544461395.9,286046997.2,N
1544461415.7,286046997.1,N
1544461435.6,286046996.2,N
1544461455.4,286046997.1,N
1544461475.2,286046997.6,N
1544461495.1,286046997.3,N
1544461496.0,286046997.3,N
1544461515.8,286046995.7,N
1544461535.7,286046997.6,N
1544461555.5,286046999.1,N
1544461575.3,286046998.0,N
1544461595.2,286046993.4,Y
1544461615.0,286046996.8,P
1544461615.9,286046996.8,P
1544461635.7,286046997.6,P
1544461655.6,286046995.9,Y
1544461675.4,286046997.3,P
1544461695.3,286047000.9,P
1544461715.1,286046998.3,N
1544461716.0,286046998.3,N
1544461735.8,286046997.7,N
1544461755.7,286046999.3,N
1544461775.5,286046997.1,N
1544461795.4,286046997.4,N
1544461815.2,286046995.0,Y
1544461835.0,286046997.1,P
1544461835.9,286046997.1,P
1544461855.8,286046995.7,P
1544461875.6,286046999.3,N
1544461895.4,286047001.2,N
1544461915.3,286046997.3,N
1544461935.1,286046996.8,N
1544461955.9,286047000.5,N
1544461975.7,286047002.0,N
1544461995.5,286046998.1,N
1544462015.4,286047002.7,N
1544462035.2,286046998.6,N
1544462055.0,286047002.2,N
1544462055.9,286047002.2,N
1544462075.8,286046999.9,N
1544462095.6,286046998.3,N
1544462115.5,286046997.5,N
1544462135.3,286046998.7,N
1544462155.1,286046997.8,N
1544462175.9,286046998.9,N
1544462195.7,286046995.0,N
1544462215.5,286046999.1,N
1544462235.4,286046996.5,N
1544462255.2,286046997.7,N
1544462275.1,286046996.2,N
1544462276.0,286046996.2,N
1544462295.8,286046996.0,N
1544462315.6,286046994.7,N
1544462335.5,286046995.4,N
1544462355.3,286046998.0,N
1544462375.1,286046997.4,N
1544462395.9,286046997.4,N
1544462415.7,286046997.1,N
1544462435.6,286047001.1,N
1544462455.4,286046996.9,N
1544462475.2,286046995.2,N
1544462495.1,286046995.0,N
1544462496.0,286046995.0,N
1544462515.8,286046997.7,N
1544462535.6,286046997.0,N
1544462555.5,286046998.9,N
1544462575.3,286046996.5,N
1544462595.2,286046995.3,N
1544462615.9,286046998.0,N
1544462635.7,286046997.8,N
1544462655.6,286046997.6,N
1544462675.4,286047000.5,N
1544462695.3,286046996.6,N
1544462715.1,286046999.0,N
1544462716.0,286046999.0,N
1544462735.8,286046996.9,N
1544462755.7,286046998.3,N
1544462775.5,286047000.4,N
1544462795.3,286046998.7,N
1544462815.2,286046998.4,N
1544462835.0,286047000.5,N
1544462835.9,286047000.5,N
1544462855.8,286046998.1,N
1544462875.6,286047002.4,N
1544462895.4,286047002.7,N
1544462915.3,286047001.5,N
1544462935.1,286047004.2,N
1544462955.8,286047003.1,N
1544462975.7,286047005.9,N
1544462995.5,286047005.0,N
1544463015.4,286047004.2,N
1544463035.2,286047002.9,N
1544463055.0,286047005.5,N
1544463055.9,286047005.5,N
1544463075.8,286047005.6,N
1544463095.6,286047003.7,N
1544463115.4,286047001.3,N
1544463135.3,286047003.7,N
1544463155.1,286047004.0,N
1544463175.9,286047002.1,N
1544463195.7,286047007.2,N
1544463215.5,286047007.4,N
1544463235.4,286047006.5,N
1544463255.2,286047006.2,N
1544463275.1,286047009.0,Y
1544463276.0,286047009.0,P
1544463295.8,286047002.9,N
1544463315.6,286047005.3,N
1544463335.5,286047006.4,N
1544463355.3,286047007.6,Y
1544463375.1,286047002.7,P
1544463395.9,286047000.3,N
1544463415.7,286047000.3,N
1544463435.6,286047002.5,N
1544463455.4,286047004.3,N
1544463475.2,286047004.2,N
1544463495.1,286047004.0,N
1544463496.0,286047004.0,N
1544463515.8,286047001.9,N
1544463535.6,286047003.7,N
1544463555.5,286047001.4,N
1544463575.3,286047002.1,N
1544463595.2,286047000.2,N
1544463615.9,286047000.5,N
1544463635.7,286046998.9,N
1544463655.6,286046998.1,N
1544463675.4,286047000.7,N
1544463695.2,286046998.5,N
1544463715.1,286047000.8,N
1544463716.0,286047000.8,N
1544463735.8,286047000.7,N
1544463755.7,286047000.9,N
1544463775.5,286047000.3,N
1544463795.3,286047002.7,N
1544463815.2,286047001.7,N
1544463835.0,286047003.1,N
1544463835.9,286047003.1,N
1544463855.7,286047003.9,N
1544463875.6,286047003.6,N
1544463895.4,286047003.2,N
1544463915.3,286047003.2,N
1544463935.1,286047002.6,N
1544463936.0,286047002.6,N
1544463955.8,286046999.9,N
1544463975.7,286047002.2,N
1544463995.5,286046999.7,N
1544464015.4,286047003.4,N
1544464035.2,286047003.2,N
1544464055.0,286047005.4,Y
1544464055.9,286047005.4,P
1544464075.8,286047001.8,N
1544464095.6,286047003.5,N
1544464115.4,286047003.7,N
1544464135.3,286047002.2,N
1544464155.1,286047002.6,N
1544464175.9,286047002.0,N
1544464195.7,286047001.4,N
1544464215.5,286047007.6,Y
1544464235.4,286047002.8,P
1544464255.2,286047000.1,N
1544464275.0,286047002.6,N
1544464276.0,286047002.6,N
1544464295.8,286047000.1,N
1544464315.6,286047002.0,N
1544464335.5,286047004.4,Y
1544464355.3,286047000.4,P
1544464375.1,286047000.9,N
1544464395.9,286047000.1,N
1544464415.7,286047002.8,Y
1544464435.6,286047000.4,P
1544464455.4,286047000.5,N
1544464475.2,286047000.1,N
1544464495.1,286047000.0,N
1544464496.0,286047000.0,N
1544464515.8,286047001.8,Y
1544464535.7,286047003.5,P
1544464555.5,286047001.6,N
1544464575.3,286047002.8,N
1544464595.2,286047001.3,N
1544464615.0,286046999.7,N
1544464615.9,286046999.7,N
1544464635.7,286046999.0,N
1544464655.6,286047002.7,N
1544464675.4,286047004.3,N
1544464695.3,286047002.2,N
1544464715.1,286047002.7,N
1544464735.8,286047000.0,N
1544464755.7,286047000.4,N
1544464775.5,286047000.1,N
1544464795.4,286047001.9,N
